Lihue, HI

4:49 PM HST on April 19, 2018 (GMT -1000)
Lihue

Weather History for PHLI - March, 2013

Change the Weather History Date:

Saturday, March 16, 2013

  Actual Average Record
Temperature  
Mean Temperature 67 °F 73 °F  
Max Temperature 77 °F 78 °F 85 °F (2018)
Min Temperature 56 °F 67 °F 53 °F (2005)
Degree Days  
Heating Degree Days 0 0  
Month to date heating degree days 0 0  
Since 1 July heating degree days 0 0  
Cooling Degree Days 2 8  
Month to date cooling degree days 75 116  
Year to date cooling degree days 462 511  
Growing Degree Days 15 (Base 50)    
Moisture  
Dew Point 52 °F    
Average Humidity 63    
Maximum Humidity 87    
Minimum Humidity 38    
Precipitation  
Precipitation 0.00 in 0.15 in 3.51 in (1968)
Month to date precipitation 0.16 2.37  
Year to date precipitation 7.04 9.28  
Snow  
Snow 0.00 in - - ()
Month to date snowfall 0.0  
Since 1 July snowfall 0.0  
Snow Depth 0.00 in    
Sea Level Pressure  
Sea Level Pressure 29.98 in    
Wind  
Wind Speed 9 mph (NW)    
Max Wind Speed 21 mph    
Max Gust Speed 28 mph    
Visibility 10 miles    
Events      
T = Trace of Precipitation, MM = Missing Value Source: NWS Daily Summary

Daily Weather History Graph

Daily Weather History Graph

Search for Another Location

Airport or City:

Astronomy

Mar. 16, 2013 Rise Set
Actual Time 6:44 AM HST 6:47 PM HST
Civil Twilight 6:22 AM HST 7:09 PM HST
Nautical Twilight 5:56 AM HST 7:35 PM HST
Astronomical Twilight 5:30 AM HST 8:01 PM HST
Moon 9:59 AM HST (3/16) 11:27 PM HST (3/16)
Length of Visible Light 12h 47m
Length of Day
12h 02m
Waxing Crescent, 25% of the Moon is Illuminated
Mar 16
Waxing Crescent
Mar 19
First Quarter
Mar 26
Full
Apr 2
Last Quarter
Apr 9
New

Hourly Weather History & Observations

Time (HST) Temp. Dew Point Humidity Pressure Visibility Wind Dir Wind Speed Gust Speed Precip Events Conditions
12:53 AM 61.0 °F 55.0 °F 81% 29.97 in 10.0 mi West 4.6 mph - N/A   Clear
1:53 AM 59.0 °F 55.0 °F 87% 29.96 in 10.0 mi WSW 6.9 mph - N/A   Clear
2:53 AM 59.0 °F 53.1 °F 81% 29.94 in 10.0 mi SW 4.6 mph - N/A   Clear
3:53 AM 59.0 °F 52.0 °F 78% 29.95 in 10.0 mi WNW 4.6 mph - N/A   Clear
4:53 AM 59.0 °F 50.0 °F 72% 29.95 in 10.0 mi SW 3.5 mph - N/A   Clear
5:53 AM 55.9 °F 51.1 °F 84% 29.98 in 10.0 mi WNW 8.1 mph - N/A   Clear
6:53 AM 57.0 °F 50.0 °F 77% 29.99 in 10.0 mi WNW 9.2 mph - N/A   Clear
7:53 AM 61.0 °F 52.0 °F 72% 30.01 in 10.0 mi Calm Calm - N/A   Clear
8:53 AM 68.0 °F 53.1 °F 59% 30.01 in 10.0 mi NNE 4.6 mph - N/A   Clear
9:53 AM 70.0 °F 53.1 °F 55% 30.02 in 10.0 mi NW 13.8 mph 26.5 mph N/A   Scattered Clouds
10:53 AM 71.1 °F 54.0 °F 55% 30.01 in 10.0 mi North 11.5 mph - N/A   Mostly Cloudy
11:53 AM 73.9 °F 52.0 °F 46% 29.99 in 10.0 mi NNW 13.8 mph - N/A   Overcast
12:53 PM 75.0 °F 48.9 °F 40% 29.97 in 10.0 mi NW 16.1 mph 24.2 mph N/A   Clear
1:53 PM 75.0 °F 50.0 °F 41% 29.95 in 10.0 mi North 17.3 mph 25.3 mph N/A   Mostly Cloudy
2:53 PM 72.0 °F 50.0 °F 46% 29.93 in 10.0 mi NNW 9.2 mph - N/A   Mostly Cloudy
3:53 PM 71.1 °F 54.0 °F 55% 29.94 in 10.0 mi North 15.0 mph - N/A   Mostly Cloudy
4:53 PM 71.1 °F 50.0 °F 47% 29.94 in 10.0 mi NNW 16.1 mph - N/A   Scattered Clouds
5:53 PM 69.1 °F 52.0 °F 54% 29.96 in 10.0 mi NNW 11.5 mph - N/A   Mostly Cloudy
6:53 PM 66.9 °F 52.0 °F 59% 29.98 in 10.0 mi NNW 9.2 mph - N/A   Clear
7:53 PM 64.0 °F 52.0 °F 65% 30.01 in 10.0 mi NNW 3.5 mph - N/A   Clear
8:53 PM 64.9 °F 54.0 °F 68% 30.03 in 10.0 mi North 10.4 mph - N/A   Clear
9:53 PM 64.9 °F 55.9 °F 73% 30.03 in 10.0 mi North 10.4 mph - N/A   Mostly Cloudy
10:53 PM 64.0 °F 55.0 °F 73% 30.04 in 10.0 mi NW 8.1 mph - N/A   Overcast
11:53 PM 64.0 °F 55.9 °F 75% 30.03 in 10.0 mi North 8.1 mph - N/A   Partly Cloudy